Hourly Data Report for October 05, 2015

All times are specified in Local Standard Time (LST). Add 1 hour to adjust for Daylight Saving Time where and when it is observed.

OTTAWA INTL A
ONTARIO

45°19'00.000" N
75°40'00.000" W
114.90 m
6106001
71628
YOW

Download Data

Hourly Data (October 2015)
Hourly Data Report for October 5, 2015
Temp Definition
°C
Dew Point Temp Definition
°C
Rel Hum Definition
%
Wind Dir Definition
10's deg

Wind Spd Definition
km/h
Visibility Definition
km
Stn Press Definition
kPa
Hmdx Definition


Wind Chill Definition


Weather Definition


TIME
00:00 Legend Double Dagger 7.4 3.1 74 6 11 24.1 101.11     LegendNANA
01:00 Legend Double Dagger 7.5 3.8 77 4 10 24.1 101.12     Mostly Cloudy
02:00 Legend Double Dagger 7.9 3.6 74 5 7 24.1 101.13     LegendNANA
03:00 Legend Double Dagger 7.9 3.6 74 5 9 24.1 101.11     LegendNANA
04:00 Legend Double Dagger 8.0 3.7 74 1 9 24.1 101.14     Cloudy
05:00 Legend Double Dagger 8.1 4.2 76 7 7 24.1 101.12     LegendNANA
06:00 Legend Double Dagger 8.0 4.1 76 7 9 24.1 101.12     LegendNANA
07:00 Legend Double Dagger 8.5 4.4 75 6 5 24.1 101.13     Cloudy
08:00 Legend Double Dagger 9.6 4.8 72 5 5 24.1 101.12     LegendNANA
09:00 Legend Double Dagger 11.2 5.3 67 6 8 24.1 101.09     LegendNANA
10:00 Legend Double Dagger 12.2 5.2 62 7 4 24.1 101.09     Cloudy
11:00 Legend Double Dagger 14.5 6.7 59 2 6 24.1 101.03     LegendNANA
12:00 Legend Double Dagger 14.7 6.6 58 36 3 24.1 100.98     LegendNANA
13:00 Legend Double Dagger 15.4 6.0 53 33 4 24.1 100.91     Cloudy
14:00 Legend Double Dagger 15.1 6.5 56 36 4 24.1 100.84     LegendNANA
15:00 Legend Double Dagger 15.4 6.2 54 29 8 24.1 100.82     LegendNANA
16:00 Legend Double Dagger 15.1 6.2 55 27 3 24.1 100.78     Cloudy
17:00 Legend Double Dagger 14.7 6.8 59 30 5 24.1 100.74     LegendNANA
18:00 Legend Double Dagger 13.8 8.3 69 33 7 24.1 100.75     LegendNANA
19:00 Legend Double Dagger 13.6 8.3 70 33 10 24.1 100.77     Cloudy
20:00 Legend Double Dagger 13.2 8.5 73 36 10 24.1 100.76     LegendNANA
21:00 Legend Double Dagger 12.9 8.6 75 34 9 24.1 100.71     LegendNANA
22:00 Legend Double Dagger 12.7 8.6 76 2 6 24.1 100.70     Cloudy
23:00 Legend Double Dagger 12.6 8.7 77 36 7 24.1 100.67     LegendNANA

Notes on Data Quality.

Legend

  • E = Estimated
  • M = Missing
  • NA = Not Available
  • ‡ = Partner data that is not subject to review by the National Climate Archives
Date modified: